| time (UTC) | temp F | wind direction | speed MPH | gust MPH | rain 1hr in | rain 24hr in | rain mn in | humidity % | barometer mb |
| 20260901014103 | 71 | 219 | 0.0 | 1.0 | 0.06 | 0.73 | 0.73 | 99 | 1015.0 |
| 20260901013604 | 71 | 219 | 1.0 | 3.0 | 0.06 | 0.73 | 0.73 | 99 | 1015.0 |
| 20260901013104 | 71 | 253 | 1.0 | 3.0 | 0.02 | 0.69 | 0.69 | 99 | 1015.2 |
| 20260901012104 | 71 | 247 | 1.0 | 2.0 | 0.00 | 0.67 | 0.67 | 99 | 1015.3 |
| 20260901011104 | 71 | 272 | 0.0 | 1.0 | 0.00 | 0.67 | 0.67 | 99 | 1015.3 |
| 20260901010603 | 71 | 282 | 0.0 | 2.0 | 0.00 | 0.67 | 0.67 | 99 | 1015.2 |
| 20260901010103 | 71 | 225 | 0.0 | 2.0 | 0.00 | 0.67 | 0.67 | 99 | 1015.0 |
| 20260901005104 | 71 | 235 | 1.0 | 2.0 | 0.00 | 0.67 | 0.67 | 99 | 1014.8 |
| 20260901004604 | 71 | 267 | 1.0 | 3.0 | 0.00 | 0.67 | 0.67 | 99 | 1014.9 |
| 20260901004103 | 71 | 237 | 1.0 | 3.0 | 0.00 | 0.67 | 0.67 | 99 | 1014.8 |
| 20260901003604 | 71 | 289 | 1.0 | 2.0 | 0.00 | 0.67 | 0.67 | 99 | 1014.8 |
| 20260901002603 | 71 | 231 | 1.0 | 2.0 | 0.00 | 0.67 | 0.67 | 99 | 1014.5 |
| 20260901002104 | 72 | 235 | 0.0 | 1.0 | 0.00 | 0.67 | 0.67 | 99 | 1014.6 |
| 20260901001604 | 72 | 240 | 1.0 | 3.0 | 0.00 | 0.67 | 0.67 | 99 | 1014.6 |
| 20260901001104 | 72 | 242 | 0.0 | 3.0 | 0.00 | 0.67 | 0.67 | 99 | 1014.6 |
| 20260901000604 | 72 | 235 | 0.0 | 1.0 | 0.00 | 0.67 | 0.67 | 99 | 1014.5 |
| 20260901000104 | 72 | 235 | 1.0 | 3.0 | 0.00 | 0.67 | 0.67 | 99 | 1014.5 |
| 20260831235604 | 72 | 234 | 1.0 | 3.0 | 0.00 | 0.67 | 0.67 | 99 | 1014.5 |
| 20260831235103 | 72 | 243 | 0.0 | 2.0 | 0.00 | 0.67 | 0.67 | 99 | 1014.6 |
| 20260831234604 | 72 | 262 | 0.0 | 1.0 | 0.00 | 0.67 | 0.67 | 99 | 1014.6 |
| 20260831234103 | 72 | 235 | 0.0 | 2.0 | 0.00 | 0.67 | 0.67 | 99 | 1014.5 |
| 20260831233604 | 73 | 235 | 0.0 | 2.0 | 0.00 | 0.67 | 0.67 | 99 | 1014.5 |
| 20260831233104 | 73 | 235 | 0.0 | 0.0 | 0.00 | 0.67 | 0.67 | 99 | 1014.5 |
| 20260831232104 | 73 | 235 | 0.0 | 1.0 | 0.00 | 0.67 | 0.67 | 99 | 1014.4 |
| 20260831231604 | 73 | 235 | 0.0 | 1.0 | 0.00 | 0.67 | 0.67 | 99 | 1014.5 |
| 20260831231102 | 73 | 235 | 0.0 | 2.0 | 0.00 | 0.67 | 0.67 | 99 | 1014.6 |
| 20260831230602 | 73 | 258 | 0.0 | 1.0 | 0.00 | 0.67 | 0.67 | 99 | 1014.7 |
| 20260831225602 | 73 | 293 | 0.0 | 3.0 | 0.00 | 0.67 | 0.67 | 99 | 1014.9 |
| 20260831224102 | 73 | 276 | 0.0 | 3.0 | 0.00 | 0.67 | 0.67 | 99 | 1015.0 |
| 20260831223602 | 73 | 272 | 1.0 | 3.0 | 0.00 | 0.67 | 0.67 | 99 | 1015.0 |
| 20260831223103 | 73 | 322 | 0.0 | 2.0 | 0.00 | 0.67 | 0.67 | 100 | 1015.0 |
| 20260831222603 | 73 | 265 | 1.0 | 2.0 | 0.00 | 0.67 | 0.67 | 100 | 1015.0 |
| 20260831222102 | 73 | 245 | 0.0 | 2.0 | 0.00 | 0.67 | 0.67 | 100 | 1014.9 |
| 20260831221602 | 73 | 289 | 0.0 | 2.0 | 0.00 | 0.67 | 0.67 | 99 | 1015.0 |
| 20260831221102 | 73 | 213 | 1.0 | 2.0 | 0.00 | 0.67 | 0.67 | 99 | 1015.0 |
| 20260831220602 | 73 | 257 | 0.0 | 2.0 | 0.00 | 0.67 | 0.67 | 99 | 1015.0 |
| 20260831215603 | 72 | 307 | 0.0 | 1.0 | 0.00 | 0.67 | 0.67 | 99 | 1015.2 |
| 20260831215102 | 72 | 291 | 0.0 | 2.0 | 0.00 | 0.67 | 0.67 | 99 | 1015.1 |
| 20260831214602 | 72 | 313 | 2.0 | 3.0 | 0.00 | 0.67 | 0.67 | 99 | 1015.2 |
| 20260831214103 | 72 | 274 | 1.0 | 3.0 | 0.00 | 0.67 | 0.67 | 99 | 1015.2 |
| 20260831213602 | 72 | 267 | 0.0 | 2.0 | 0.00 | 0.67 | 0.67 | 99 | 1015.1 |
| 20260831213102 | 72 | 305 | 0.0 | 2.0 | 0.00 | 0.67 | 0.67 | 99 | 1015.1 |
| 20260831212602 | 72 | 259 | 0.0 | 2.0 | 0.00 | 0.67 | 0.67 | 100 | 1015.0 |
| 20260831212102 | 72 | 245 | 0.0 | 3.0 | 0.00 | 0.67 | 0.67 | 99 | 1015.1 |
| 20260831211602 | 72 | 297 | 1.0 | 3.0 | 0.00 | 0.67 | 0.67 | 100 | 1015.1 |
| 20260831211102 | 72 | 296 | 0.0 | 2.0 | 0.00 | 0.67 | 0.67 | 99 | 1015.0 |
| 20260831210602 | 72 | 312 | 0.0 | 2.0 | 0.00 | 0.67 | 0.67 | 99 | 1014.9 |
| 20260831205602 | 72 | 245 | 0.0 | 3.0 | 0.00 | 0.67 | 0.67 | 100 | 1014.9 |
| 20260831205102 | 72 | 266 | 0.0 | 3.0 | 0.00 | 0.67 | 0.67 | 100 | 1014.8 |
| 20260831204602 | 71 | 231 | 1.0 | 3.0 | 0.00 | 0.67 | 0.67 | 99 | 1014.8 |
| 20260831204103 | 71 | 253 | 0.0 | 2.0 | 0.00 | 0.67 | 0.67 | 99 | 1014.9 |
| 20260831203603 | 71 | 250 | 2.0 | 5.0 | 0.00 | 0.67 | 0.67 | 99 | 1014.9 |
| 20260831203102 | 71 | 296 | 1.0 | 3.0 | 0.01 | 0.67 | 0.67 | 99 | 1014.9 |
| 20260831202602 | 71 | 296 | 1.0 | 5.0 | 0.01 | 0.67 | 0.67 | 99 | 1015.0 |
| 20260831195603 | 71 | 274 | 1.0 | 2.0 | 0.01 | 0.67 | 0.67 | 100 | 1015.1 |
| 20260831195102 | 71 | 251 | 1.0 | 3.0 | 0.02 | 0.68 | 0.67 | 99 | 1015.0 |
| 20260831194602 | 71 | 211 | 1.0 | 3.0 | 0.02 | 0.68 | 0.67 | 100 | 1015.1 |
| 20260831194102 | 71 | 288 | 0.0 | 1.0 | 0.02 | 0.69 | 0.67 | 99 | 1015.2 |
| 20260831193603 | 70 | 282 | 1.0 | 2.0 | 0.02 | 0.69 | 0.67 | 99 | 1015.3 |
| 20260831192103 | 70 | 201 | 0.0 | 2.0 | 0.01 | 0.68 | 0.66 | 99 | 1015.5 |
| 20260831191603 | 70 | 283 | 1.0 | 2.0 | 0.01 | 0.68 | 0.66 | 99 | 1015.5 |
| 20260831191102 | 70 | 272 | 0.0 | 3.0 | 0.01 | 0.68 | 0.66 | 99 | 1015.5 |
| 20260831190603 | 70 | 275 | 1.0 | 2.0 | 0.01 | 0.68 | 0.66 | 99 | 1015.5 |
| 20260831184602 | 70 | 224 | 1.0 | 2.0 | 0.00 | 0.67 | 0.65 | 99 | 1015.6 |
| 20260831184103 | 70 | 268 | 1.0 | 3.0 | 0.00 | 0.67 | 0.65 | 99 | 1015.6 |
| 20260831183602 | 70 | 245 | 1.0 | 5.0 | 0.03 | 0.67 | 0.65 | 99 | 1015.6 |
| 20260831182603 | 70 | 222 | 2.0 | 3.0 | 0.05 | 0.67 | 0.65 | 99 | 1015.6 |
| 20260831182102 | 70 | 231 | 2.0 | 3.0 | 0.06 | 0.67 | 0.65 | 99 | 1015.7 |
| 20260831181102 | 70 | 222 | 0.0 | 2.0 | 0.06 | 0.67 | 0.65 | 99 | 1015.9 |
| 20260831180603 | 70 | 239 | 1.0 | 3.0 | 0.06 | 0.67 | 0.65 | 99 | 1015.9 |
| 20260831175103 | 70 | 245 | 1.0 | 2.0 | 0.06 | 0.67 | 0.65 | 99 | 1016.0 |
| 20260831174602 | 70 | 272 | 0.0 | 2.0 | 0.06 | 0.67 | 0.65 | 99 | 1016.0 |
| 20260831174103 | 70 | 189 | 2.0 | 3.0 | 0.06 | 0.67 | 0.65 | 99 | 1016.0 |
| 20260831173603 | 70 | 235 | 0.0 | 1.0 | 0.03 | 0.64 | 0.62 | 99 | 1016.2 |
| 20260831172603 | 70 | 246 | 0.0 | 2.0 | 0.01 | 0.62 | 0.60 | 99 | 1016.3 |
| 20260831172103 | 70 | 249 | 0.0 | 5.0 | 0.00 | 0.61 | 0.59 | 99 | 1016.3 |
| 20260831171603 | 70 | 284 | 1.0 | 3.0 | 0.01 | 0.61 | 0.59 | 99 | 1016.2 |
| 20260831171102 | 70 | 256 | 1.0 | 3.0 | 0.01 | 0.61 | 0.59 | 100 | 1016.3 |
| 20260831170602 | 70 | 252 | 0.0 | 3.0 | 0.01 | 0.61 | 0.59 | 100 | 1016.4 |
| 20260831165602 | 70 | 212 | 1.0 | 3.0 | 0.01 | 0.61 | 0.59 | 100 | 1016.5 |
| 20260831165102 | 69 | 201 | 1.0 | 5.0 | 0.01 | 0.61 | 0.59 | 100 | 1016.5 |
| 20260831164602 | 69 | 205 | 1.0 | 3.0 | 0.01 | 0.61 | 0.59 | 100 | 1016.5 |
| 20260831164102 | 69 | 189 | 2.0 | 3.0 | 0.01 | 0.61 | 0.59 | 100 | 1016.5 |
| 20260831163602 | 69 | 197 | 1.0 | 3.0 | 0.01 | 0.61 | 0.59 | 100 | 1016.6 |
| 20260831163102 | 68 | 208 | 1.0 | 3.0 | 0.01 | 0.61 | 0.59 | 99 | 1016.5 |
| 20260831162602 | 68 | 235 | 2.0 | 7.0 | 0.01 | 0.61 | 0.59 | 99 | 1016.5 |
| 20260831162102 | 68 | 255 | 2.0 | 5.0 | 0.04 | 0.61 | 0.59 | 100 | 1016.6 |
| 20260831161602 | 68 | 194 | 2.0 | 6.0 | 0.03 | 0.60 | 0.58 | 100 | 1016.5 |
| 20260831161102 | 67 | 197 | 2.0 | 6.0 | 0.03 | 0.60 | 0.58 | 100 | 1016.7 |
| 20260831160602 | 67 | 181 | 2.0 | 6.0 | 0.03 | 0.60 | 0.58 | 99 | 1016.8 |
| 20260831155602 | 67 | 203 | 2.0 | 6.0 | 0.03 | 0.60 | 0.58 | 99 | 1017.0 |
| 20260831155103 | 66 | 207 | 2.0 | 3.0 | 0.03 | 0.60 | 0.58 | 99 | 1017.0 |
| 20260831154602 | 66 | 194 | 3.0 | 8.0 | 0.03 | 0.60 | 0.58 | 99 | 1017.0 |
| 20260831153102 | 66 | 199 | 1.0 | 3.0 | 0.03 | 0.60 | 0.58 | 99 | 1017.1 |
| 20260831152103 | 66 | 235 | 0.0 | 2.0 | 0.00 | 0.58 | 0.55 | 99 | 1017.2 |
| 20260831151602 | 66 | 240 | 1.0 | 3.0 | 0.00 | 0.58 | 0.55 | 99 | 1017.2 |
| 20260831151102 | 66 | 229 | 2.0 | 3.0 | 0.01 | 0.58 | 0.55 | 99 | 1017.2 |
| 20260831150603 | 66 | 186 | 3.0 | 3.0 | 0.01 | 0.58 | 0.55 | 99 | 1017.1 |
| 20260831145603 | 66 | 163 | 2.0 | 6.0 | 0.01 | 0.59 | 0.55 | 99 | 1017.1 |
| 20260831145102 | 66 | 178 | 1.0 | 3.0 | 0.01 | 0.59 | 0.55 | 99 | 1017.0 |
| 20260831144603 | 66 | 165 | 3.0 | 8.0 | 0.02 | 0.59 | 0.55 | 99 | 1016.9 |
| 20260831144102 | 66 | 158 | 3.0 | 7.0 | 0.02 | 0.60 | 0.55 | 99 | 1017.0 |
| 20260831143602 | 66 | 176 | 5.0 | 7.0 | 0.03 | 0.60 | 0.55 | 99 | 1016.9 |
| 20260831143102 | 66 | 171 | 3.0 | 7.0 | 0.03 | 0.60 | 0.55 | 99 | 1016.9 |
| 20260831142103 | 66 | 171 | 2.0 | 6.0 | 0.04 | 0.60 | 0.55 | 99 | 1017.1 |
| 20260831141603 | 66 | 160 | 3.0 | 6.0 | 0.06 | 0.60 | 0.55 | 99 | 1017.1 |
| 20260831141103 | 66 | 169 | 2.0 | 3.0 | 0.07 | 0.59 | 0.54 | 99 | 1017.1 |
| 20260831140602 | 66 | 170 | 2.0 | 3.0 | 0.08 | 0.59 | 0.54 | 99 | 1017.1 |
| 20260831135603 | 66 | 162 | 1.0 | 3.0 | 0.15 | 0.59 | 0.54 | 99 | 1017.2 |
| 20260831135103 | 66 | 184 | 1.0 | 3.0 | 0.18 | 0.59 | 0.54 | 99 | 1017.2 |
| 20260831134603 | 66 | 172 | 1.0 | 3.0 | 0.17 | 0.58 | 0.53 | 99 | 1017.1 |
| 20260831134102 | 66 | 162 | 2.0 | 5.0 | 0.17 | 0.58 | 0.53 | 99 | 1017.1 |
| 20260831133602 | 66 | 170 | 0.0 | 2.0 | 0.17 | 0.57 | 0.52 | 99 | 1017.1 |
| 20260831132604 | 66 | 187 | 1.0 | 5.0 | 0.16 | 0.56 | 0.51 | 99 | 1017.2 |
| 20260831132102 | 66 | 264 | 1.0 | 6.0 | 0.18 | 0.56 | 0.51 | 99 | 1017.1 |
| 20260831131603 | 66 | 215 | 2.0 | 5.0 | 0.17 | 0.54 | 0.49 | 99 | 1017.1 |
| 20260831131103 | 65 | 187 | 3.0 | 7.0 | 0.27 | 0.52 | 0.47 | 99 | 1017.2 |
| 20260831130602 | 66 | 175 | 3.0 | 6.0 | 0.30 | 0.51 | 0.46 | 99 | 1017.2 |
| 20260831125602 | 66 | 194 | 2.0 | 3.0 | 0.24 | 0.44 | 0.39 | 99 | 1017.3 |
| 20260831125102 | 66 | 176 | 1.0 | 3.0 | 0.21 | 0.41 | 0.36 | 99 | 1017.3 |
| 20260831124603 | 65 | 178 | 2.0 | 3.0 | 0.22 | 0.41 | 0.36 | 99 | 1017.3 |
| 20260831123602 | 66 | 157 | 2.0 | 3.0 | 0.24 | 0.40 | 0.35 | 99 | 1017.3 |
| 20260831123102 | 65 | 160 | 1.0 | 3.0 | 0.24 | 0.40 | 0.35 | 99 | 1017.3 |
| 20260831122602 | 66 | 160 | 1.0 | 2.0 | 0.24 | 0.40 | 0.35 | 99 | 1017.4 |
| 20260831122102 | 66 | 157 | 1.0 | 3.0 | 0.22 | 0.38 | 0.33 | 99 | 1017.4 |
| 20260831121603 | 66 | 159 | 2.0 | 3.0 | 0.21 | 0.37 | 0.32 | 99 | 1017.4 |
| 20260831121102 | 66 | 123 | 1.0 | 7.0 | 0.10 | 0.25 | 0.20 | 99 | 1017.7 |
| 20260831120603 | 66 | 53 | 2.0 | 7.0 | 0.06 | 0.21 | 0.16 | 99 | 1017.9 |
| 20260831115603 | 66 | 185 | 1.0 | 3.0 | 0.05 | 0.20 | 0.15 | 99 | 1017.1 |
| 20260831115102 | 66 | 186 | 2.0 | 5.0 | 0.05 | 0.20 | 0.15 | 99 | 1017.0 |
| 20260831114102 | 66 | 257 | 1.0 | 2.0 | 0.01 | 0.16 | 0.11 | 99 | 1017.1 |
| 20260831113603 | 66 | 201 | 0.0 | 2.0 | 0.02 | 0.16 | 0.11 | 99 | 1017.1 |
| 20260831113103 | 66 | 222 | 1.0 | 3.0 | 0.03 | 0.16 | 0.11 | 99 | 1017.1 |
| 20260831112103 | 66 | 234 | 0.0 | 2.0 | 0.03 | 0.16 | 0.11 | 99 | 1017.1 |
| 20260831111603 | 66 | 235 | 0.0 | 2.0 | 0.03 | 0.16 | 0.11 | 99 | 1017.1 |
| 20260831111103 | 66 | 219 | 1.0 | 3.0 | 0.02 | 0.15 | 0.10 | 99 | 1017.2 |
| 20260831105102 | 66 | 203 | 1.0 | 2.0 | 0.02 | 0.15 | 0.10 | 99 | 1017.2 |
| 20260831104603 | 66 | 203 | 0.0 | 2.0 | 0.02 | 0.15 | 0.10 | 99 | 1017.2 |
| 20260831104103 | 66 | 215 | 1.0 | 3.0 | 0.02 | 0.15 | 0.10 | 99 | 1017.2 |
| 20260831103602 | 66 | 204 | 1.0 | 2.0 | 0.01 | 0.14 | 0.09 | 99 | 1017.2 |
| 20260831103102 | 66 | 176 | 1.0 | 3.0 | 0.00 | 0.13 | 0.08 | 99 | 1017.2 |
| 20260831102602 | 66 | 212 | 1.0 | 2.0 | 0.00 | 0.13 | 0.08 | 99 | 1017.1 |
| 20260831102102 | 66 | 203 | 1.0 | 2.0 | 0.00 | 0.13 | 0.08 | 99 | 1017.2 |
| 20260831101104 | 66 | 189 | 1.0 | 3.0 | 0.01 | 0.13 | 0.08 | 99 | 1017.1 |
| 20260831100603 | 66 | 200 | 1.0 | 2.0 | 0.01 | 0.13 | 0.08 | 98 | 1017.1 |
| 20260831100103 | 66 | 189 | 0.0 | 2.0 | 0.01 | 0.13 | 0.08 | 98 | 1017.1 |
| 20260831095103 | 66 | 197 | 0.0 | 2.0 | 0.02 | 0.13 | 0.08 | 98 | 1017.2 |
| 20260831094602 | 66 | 218 | 0.0 | 2.0 | 0.02 | 0.13 | 0.08 | 98 | 1017.1 |
| 20260831094102 | 66 | 195 | 2.0 | 3.0 | 0.02 | 0.13 | 0.08 | 98 | 1017.1 |
| 20260831092603 | 66 | 166 | 1.0 | 2.0 | 0.02 | 0.13 | 0.08 | 98 | 1017.0 |
| 20260831092103 | 66 | 181 | 1.0 | 3.0 | 0.02 | 0.13 | 0.08 | 98 | 1017.0 |
| 20260831091102 | 66 | 180 | 2.0 | 3.0 | 0.01 | 0.12 | 0.07 | 98 | 1017.1 |
| 20260831090603 | 66 | 170 | 1.0 | 3.0 | 0.01 | 0.12 | 0.07 | 98 | 1017.2 |
| 20260831085603 | 66 | 177 | 2.0 | 3.0 | 0.01 | 0.11 | 0.06 | 98 | 1017.2 |
| 20260831085103 | 66 | 155 | 1.0 | 3.0 | 0.01 | 0.11 | 0.06 | 98 | 1017.3 |
| 20260831083103 | 66 | 166 | 0.0 | 1.0 | 0.02 | 0.11 | 0.06 | 98 | 1017.5 |
| 20260831082602 | 66 | 166 | 0.0 | 2.0 | 0.02 | 0.11 | 0.06 | 98 | 1017.6 |
| 20260831082103 | 66 | 162 | 0.0 | 3.0 | 0.02 | 0.11 | 0.06 | 98 | 1017.7 |
| 20260831081603 | 66 | 161 | 0.0 | 1.0 | 0.02 | 0.11 | 0.06 | 98 | 1017.7 |
| 20260831081103 | 66 | 161 | 1.0 | 3.0 | 0.02 | 0.11 | 0.06 | 98 | 1017.7 |
| 20260831080603 | 66 | 245 | 1.0 | 2.0 | 0.02 | 0.11 | 0.06 | 98 | 1017.7 |
| 20260831075103 | 66 | 245 | 0.0 | 1.0 | 0.02 | 0.10 | 0.05 | 98 | 1017.7 |
| 20260831074103 | 66 | 249 | 0.0 | 3.0 | 0.02 | 0.10 | 0.05 | 98 | 1017.8 |
| 20260831073602 | 66 | 223 | 1.0 | 3.0 | 0.02 | 0.10 | 0.05 | 98 | 1017.9 |
| 20260831073103 | 66 | 228 | 1.0 | 3.0 | 0.01 | 0.09 | 0.04 | 98 | 1017.9 |
| 20260831072602 | 66 | 231 | 0.0 | 1.0 | 0.01 | 0.09 | 0.04 | 98 | 1017.9 |
| 20260831072103 | 66 | 212 | 0.0 | 2.0 | 0.01 | 0.09 | 0.04 | 98 | 1017.9 |
| 20260831071603 | 66 | 180 | 1.0 | 3.0 | 0.02 | 0.09 | 0.04 | 98 | 1017.8 |
| 20260831070603 | 66 | 245 | 0.0 | 2.0 | 0.02 | 0.09 | 0.04 | 98 | 1017.9 |
| 20260831070103 | 66 | 235 | 0.0 | 2.0 | 0.02 | 0.09 | 0.04 | 98 | 1018.0 |
| 20260831065604 | 66 | 190 | 0.0 | 2.0 | 0.02 | 0.09 | 0.04 | 98 | 1017.9 |
| 20260831064104 | 66 | 257 | 1.0 | 2.0 | 0.02 | 0.08 | 0.03 | 98 | 1018.1 |
| 20260831063603 | 66 | 257 | 0.0 | 0.0 | 0.03 | 0.08 | 0.03 | 98 | 1018.1 |
| 20260831063102 | 66 | 257 | 0.0 | 0.0 | 0.03 | 0.08 | 0.03 | 98 | 1018.2 |
| 20260831062603 | 66 | 257 | 0.0 | 0.0 | 0.03 | 0.08 | 0.03 | 98 | 1018.2 |
| 20260831062102 | 66 | 257 | 0.0 | 1.0 | 0.03 | 0.08 | 0.03 | 98 | 1018.3 |
| 20260831061603 | 66 | 257 | 0.0 | 2.0 | 0.02 | 0.07 | 0.02 | 98 | 1018.3 |
| 20260831061103 | 66 | 257 | 0.0 | 1.0 | 0.02 | 0.07 | 0.02 | 98 | 1018.4 |
| 20260831060602 | 66 | 257 | 0.0 | 1.0 | 0.02 | 0.07 | 0.02 | 98 | 1018.4 |
| 20260831055603 | 66 | 257 | 0.0 | 1.0 | 0.02 | 0.07 | 0.02 | 98 | 1018.5 |
| 20260831055103 | 66 | 257 | 1.0 | 1.0 | 0.02 | 0.07 | 0.02 | 98 | 1018.5 |
| 20260831054602 | 66 | 257 | 0.0 | 1.0 | 0.01 | 0.06 | 0.01 | 98 | 1018.4 |
| 20260831053603 | 66 | 258 | 1.0 | 3.0 | 0.00 | 0.05 | 0.00 | 97 | 1018.4 |
| 20260831053102 | 66 | 235 | 0.0 | 2.0 | 0.00 | 0.05 | 0.00 | 97 | 1018.3 |
| 20260831052602 | 66 | 242 | 1.0 | 3.0 | 0.00 | 0.05 | 0.00 | 97 | 1018.3 |
| 20260831052102 | 66 | 245 | 0.0 | 2.0 | 0.00 | 0.05 | 0.00 | 97 | 1018.3 |
| 20260831051603 | 66 | 245 | 0.0 | 0.0 | 0.00 | 0.05 | 0.00 | 97 | 1018.2 |
| 20260831050603 | 66 | 245 | 0.0 | 2.0 | 0.00 | 0.05 | 0.00 | 97 | 1018.4 |
| 20260831050104 | 66 | 207 | 0.0 | 2.0 | 0.00 | 0.05 | 0.00 | 97 | 1018.4 |
| 20260831045103 | 66 | 205 | 0.0 | 0.0 | 0.00 | 0.05 | 0.00 | 97 | 1018.3 |
| 20260831044103 | 66 | 205 | 0.0 | 0.0 | 0.00 | 0.05 | 0.00 | 97 | 1018.3 |
| 20260831043603 | 66 | 205 | 0.0 | 1.0 | 0.00 | 0.05 | 0.00 | 97 | 1018.3 |
| 20260831043103 | 66 | 205 | 0.0 | 0.0 | 0.00 | 0.05 | 0.00 | 97 | 1018.3 |
| 20260831042603 | 66 | 205 | 0.0 | 2.0 | 0.00 | 0.05 | 0.00 | 97 | 1018.2 |
| 20260831042103 | 66 | 205 | 0.0 | 1.0 | 0.00 | 0.05 | 0.00 | 97 | 1018.3 |
| 20260831040603 | 66 | 235 | 0.0 | 1.0 | 0.00 | 0.05 | 0.00 | 97 | 1018.4 |
| 20260831035103 | 66 | 235 | 0.0 | 1.0 | 0.00 | 0.05 | 0.05 | 97 | 1018.5 |
| 20260831034603 | 66 | 245 | 0.0 | 1.0 | 0.00 | 0.05 | 0.05 | 97 | 1018.5 |
| 20260831034103 | 66 | 245 | 0.0 | 0.0 | 0.00 | 0.05 | 0.05 | 97 | 1018.4 |
| 20260831033603 | 66 | 245 | 0.0 | 1.0 | 0.00 | 0.05 | 0.05 | 97 | 1018.5 |
| 20260831033103 | 66 | 247 | 0.0 | 2.0 | 0.00 | 0.05 | 0.05 | 97 | 1018.4 |
| 20260831032602 | 66 | 253 | 0.0 | 3.0 | 0.00 | 0.05 | 0.05 | 97 | 1018.4 |
| 20260831032103 | 65 | 260 | 0.0 | 2.0 | 0.00 | 0.05 | 0.05 | 97 | 1018.4 |
| 20260831031103 | 65 | 245 | 0.0 | 2.0 | 0.00 | 0.05 | 0.05 | 97 | 1018.5 |
| 20260831030603 | 65 | 236 | 1.0 | 3.0 | 0.00 | 0.05 | 0.05 | 97 | 1018.6 |
| 20260831025603 | 65 | 209 | 0.0 | 1.0 | 0.00 | 0.05 | 0.05 | 97 | 1018.6 |
| 20260831025103 | 65 | 213 | 1.0 | 2.0 | 0.00 | 0.05 | 0.05 | 97 | 1018.7 |
| 20260831023603 | 65 | 235 | 1.0 | 3.0 | 0.00 | 0.05 | 0.05 | 96 | 1018.7 |
| 20260831023103 | 65 | 259 | 1.0 | 3.0 | 0.00 | 0.05 | 0.05 | 96 | 1018.6 |
| 20260831022602 | 65 | 274 | 1.0 | 5.0 | 0.00 | 0.05 | 0.05 | 96 | 1018.5 |
| 20260831022103 | 65 | 239 | 1.0 | 3.0 | 0.00 | 0.05 | 0.05 | 96 | 1018.5 |
| 20260831021102 | 65 | 222 | 1.0 | 3.0 | 0.00 | 0.05 | 0.05 | 96 | 1018.5 |
| 20260831020603 | 65 | 289 | 1.0 | 3.0 | 0.00 | 0.05 | 0.05 | 96 | 1018.5 |
| 20260831015603 | 65 | 266 | 2.0 | 3.0 | 0.00 | 0.05 | 0.05 | 96 | 1018.5 |
| 20260831015102 | 65 | 235 | 1.0 | 3.0 | 0.00 | 0.05 | 0.05 | 96 | 1018.5 |